NJU218 EGSS-EGPH

Flight info

Callsign NJU218
Flight time 0h 54m
Altitude 43000
Route UTAVA Q75 BUZAD T420 TNT UN57 POL UN601 RIBEL DCT INPIP
Aircraft C700/M-SBDGHM1RWXY/LB2

Departure

Time 2026-05-07 20:49
Airport London Stansted Airport (EGSS)

Arrival

Time 2026-05-07 21:44
Airport Edinburgh Airport (EGPH)
Time Latitude Longitude Altitude Speed Heading
2026-05-07 20:39 51.88616 0.22706 328 ft 0 kts 344°
2026-05-07 20:45 51.88645 0.22714 330 ft 7 kts 63°
2026-05-07 20:46 51.88641 0.22811 328 ft 13 kts 132°
2026-05-07 20:46 51.88566 0.22965 330 ft 22 kts 128°
2026-05-07 20:46 51.88489 0.23057 331 ft 13 kts 192°
2026-05-07 20:46 51.88393 0.22928 330 ft 23 kts 221°
2026-05-07 20:47 51.88257 0.22722 328 ft 29 kts 223°
2026-05-07 20:47 51.88114 0.22507 330 ft 28 kts 222°
2026-05-07 20:47 51.87960 0.22277 329 ft 33 kts 223°
2026-05-07 20:47 51.87783 0.22013 326 ft 34 kts 224°
2026-05-07 20:48 51.87687 0.21900 324 ft 13 kts 172°
2026-05-07 20:48 51.87634 0.21924 321 ft 0 kts 158°
2026-05-07 20:48 51.87622 0.21931 323 ft 8 kts 162°
2026-05-07 20:48 51.87544 0.21996 325 ft 16 kts 117°
2026-05-07 20:49 51.87660 0.22220 325 ft 60 kts 43°
2026-05-07 20:49 51.88203 0.23027 422 ft 144 kts 39°
2026-05-07 20:49 51.89126 0.24270 1072 ft 195 kts 41°
2026-05-07 20:49 51.90152 0.25856 2406 ft 214 kts 48°
2026-05-07 20:50 51.91245 0.27659 3030 ft 235 kts 46°
2026-05-07 20:50 51.92568 0.29463 3042 ft 266 kts 30°
2026-05-07 20:50 51.94405 0.29829 4478 ft 271 kts 351°
2026-05-07 20:50 51.96064 0.28554 6350 ft 271 kts 317°
2026-05-07 20:51 51.97058 0.25947 7870 ft 284 kts 289°
2026-05-07 20:51 51.97429 0.22813 8362 ft 281 kts 272°
2026-05-07 20:51 51.97518 0.19703 10208 ft 273 kts 273°
2026-05-07 20:51 51.97769 0.16523 11582 ft 299 kts 278°
2026-05-07 20:52 51.98208 0.13116 13097 ft 313 kts 280°
2026-05-07 20:52 51.98635 0.09611 14787 ft 320 kts 278°
2026-05-07 20:52 51.98898 0.05991 16343 ft 325 kts 269°
2026-05-07 20:52 51.98704 0.02306 17872 ft 331 kts 261°
2026-05-07 20:53 51.98398 -0.01441 19150 ft 338 kts 261°
2026-05-07 20:53 51.98219 -0.05276 20255 ft 345 kts 270°
2026-05-07 20:53 51.98521 -0.09169 21282 ft 352 kts 280°
2026-05-07 20:53 51.98984 -0.11712 21990 ft 357 kts 288°
2026-05-07 20:54 51.99864 -0.15506 23034 ft 362 kts 288°
2026-05-07 20:54 52.00732 -0.19364 23987 ft 367 kts 288°
2026-05-07 20:54 52.01897 -0.24555 25143 ft 372 kts 288°
2026-05-07 20:54 52.02501 -0.27226 25732 ft 375 kts 288°
2026-05-07 20:55 52.03400 -0.31219 26564 ft 379 kts 288°
2026-05-07 20:55 52.04308 -0.35264 27385 ft 383 kts 288°
2026-05-07 20:55 52.05223 -0.39352 28202 ft 388 kts 288°
2026-05-07 20:55 52.06146 -0.43487 28993 ft 392 kts 288°
2026-05-07 20:56 52.07083 -0.47683 29774 ft 397 kts 288°
2026-05-07 20:56 52.08028 -0.51925 30472 ft 401 kts 288°
2026-05-07 20:56 52.08982 -0.56215 31122 ft 405 kts 288°
2026-05-07 20:56 52.09939 -0.60540 31731 ft 409 kts 288°
2026-05-07 20:57 52.10910 -0.64850 32312 ft 413 kts 290°
2026-05-07 20:57 52.12235 -0.69032 32876 ft 420 kts 299°
2026-05-07 20:57 52.13972 -0.72889 33423 ft 426 kts 308°
2026-05-07 20:57 52.16097 -0.76299 33944 ft 433 kts 317°
2026-05-07 20:58 52.18575 -0.79157 34377 ft 440 kts 326°
2026-05-07 20:58 52.21217 -0.81746 34764 ft 445 kts 326°
2026-05-07 20:58 52.23874 -0.84378 35154 ft 449 kts 326°
2026-05-07 20:58 52.26556 -0.87048 35537 ft 454 kts 326°
2026-05-07 20:59 52.29252 -0.89723 36028 ft 455 kts 326°
2026-05-07 20:59 52.31963 -0.92416 36538 ft 455 kts 326°
2026-05-07 20:59 52.34671 -0.95115 37011 ft 457 kts 326°
2026-05-07 20:59 52.37385 -0.97824 37479 ft 458 kts 326°
2026-05-07 21:00 52.40104 -1.00541 37955 ft 459 kts 326°
2026-05-07 21:00 52.42832 -1.03268 38409 ft 460 kts 326°
2026-05-07 21:00 52.45570 -1.06014 38810 ft 461 kts 326°
2026-05-07 21:00 52.48305 -1.08759 39164 ft 461 kts 326°
2026-05-07 21:01 52.51044 -1.11510 39517 ft 462 kts 326°
2026-05-07 21:01 52.53784 -1.14269 39862 ft 462 kts 326°
2026-05-07 21:01 52.56523 -1.17028 40206 ft 462 kts 326°
2026-05-07 21:01 52.59226 -1.19757 40527 ft 462 kts 326°
2026-05-07 21:02 52.61976 -1.22532 40855 ft 463 kts 326°
2026-05-07 21:02 52.64718 -1.25307 41177 ft 463 kts 326°
2026-05-07 21:02 52.67465 -1.28090 41488 ft 463 kts 326°
2026-05-07 21:02 52.70214 -1.30880 41799 ft 463 kts 326°
2026-05-07 21:03 52.72956 -1.33669 42106 ft 463 kts 326°
2026-05-07 21:03 52.75702 -1.36469 42427 ft 464 kts 326°
2026-05-07 21:03 52.78449 -1.39271 42703 ft 464 kts 326°
2026-05-07 21:03 52.81193 -1.42076 42975 ft 464 kts 326°
2026-05-07 21:04 52.83920 -1.44868 43042 ft 469 kts 326°
2026-05-07 21:04 52.89465 -1.50553 43047 ft 466 kts 326°
2026-05-07 21:05 52.94936 -1.56184 43038 ft 461 kts 326°
2026-05-07 21:05 53.00412 -1.61837 43037 ft 465 kts 326°
2026-05-07 21:06 53.06031 -1.67323 43035 ft 470 kts 334°
2026-05-07 21:06 53.12108 -1.71132 43043 ft 468 kts 337°
2026-05-07 21:07 53.18194 -1.74929 43045 ft 466 kts 337°
2026-05-07 21:07 53.24282 -1.78707 43045 ft 468 kts 337°
2026-05-07 21:08 53.30392 -1.82528 43050 ft 470 kts 337°
2026-05-07 21:08 53.36544 -1.86373 43048 ft 472 kts 337°
2026-05-07 21:09 53.42677 -1.90227 43050 ft 470 kts 337°
2026-05-07 21:09 53.48801 -1.94083 43048 ft 469 kts 337°
2026-05-07 21:10 53.54870 -1.97921 43046 ft 468 kts 337°
2026-05-07 21:10 53.60960 -2.01779 43042 ft 467 kts 337°
2026-05-07 21:11 53.67045 -2.05648 43044 ft 466 kts 337°
2026-05-07 21:11 53.76167 -2.11554 43043 ft 469 kts 335°
2026-05-07 21:12 53.82247 -2.15687 43037 ft 472 kts 336°
2026-05-07 21:12 53.88336 -2.19846 43039 ft 471 kts 335°
2026-05-07 21:13 53.94398 -2.24003 43030 ft 469 kts 336°
2026-05-07 21:13 54.00434 -2.28151 43028 ft 467 kts 335°
2026-05-07 21:14 54.06450 -2.32303 43033 ft 468 kts 335°
2026-05-07 21:14 54.12506 -2.36493 42458 ft 479 kts 335°
2026-05-07 21:15 54.15595 -2.38635 41802 ft 478 kts 335°
2026-05-07 21:15 54.18703 -2.40791 41157 ft 473 kts 335°
2026-05-07 21:15 54.21742 -2.42904 40535 ft 467 kts 335°
2026-05-07 21:15 54.24724 -2.44984 39930 ft 461 kts 335°
2026-05-07 21:16 54.27686 -2.47052 39343 ft 457 kts 335°
2026-05-07 21:16 54.30622 -2.49104 38776 ft 456 kts 335°
2026-05-07 21:16 54.33576 -2.51174 37927 ft 460 kts 335°
2026-05-07 21:16 54.36554 -2.53264 37037 ft 463 kts 335°
2026-05-07 21:17 54.39511 -2.55337 36207 ft 465 kts 335°
2026-05-07 21:17 54.42508 -2.57444 35397 ft 464 kts 335°
2026-05-07 21:17 54.45499 -2.59554 34718 ft 460 kts 335°
2026-05-07 21:17 54.48460 -2.61640 34116 ft 458 kts 335°
2026-05-07 21:18 54.51378 -2.63706 33467 ft 461 kts 335°
2026-05-07 21:18 54.54360 -2.65818 32860 ft 466 kts 335°
2026-05-07 21:18 54.57378 -2.67958 32236 ft 471 kts 335°
2026-05-07 21:18 54.60411 -2.70107 31615 ft 471 kts 335°
2026-05-07 21:19 54.63456 -2.72274 30988 ft 471 kts 335°
2026-05-07 21:19 54.66483 -2.74430 30365 ft 471 kts 335°
2026-05-07 21:19 54.69489 -2.76578 29709 ft 473 kts 335°
2026-05-07 21:19 54.72517 -2.78738 29085 ft 467 kts 335°
2026-05-07 21:20 54.75504 -2.80875 28468 ft 460 kts 335°
2026-05-07 21:20 54.78442 -2.82984 27854 ft 455 kts 335°
2026-05-07 21:20 54.81352 -2.85073 27266 ft 451 kts 335°
2026-05-07 21:20 54.84247 -2.87157 26667 ft 449 kts 335°
2026-05-07 21:21 54.87132 -2.89235 26087 ft 449 kts 334°
2026-05-07 21:21 54.90071 -2.91362 26016 ft 466 kts 334°
2026-05-07 21:21 54.93051 -2.93514 26013 ft 471 kts 335°
2026-05-07 21:21 54.96080 -2.95698 26008 ft 470 kts 335°
2026-05-07 21:22 54.99102 -2.97891 25475 ft 470 kts 334°
2026-05-07 21:22 55.02074 -3.00046 24445 ft 453 kts 334°
2026-05-07 21:22 55.04927 -3.02118 23432 ft 436 kts 334°
2026-05-07 21:22 55.07683 -3.04129 22451 ft 419 kts 334°
2026-05-07 21:23 55.10332 -3.06063 21536 ft 409 kts 334°
2026-05-07 21:23 55.12934 -3.07967 20633 ft 400 kts 334°
2026-05-07 21:23 55.15471 -3.09818 19755 ft 389 kts 334°
2026-05-07 21:23 55.17938 -3.11626 18900 ft 379 kts 334°
2026-05-07 21:24 55.20347 -3.13397 18038 ft 372 kts 334°
2026-05-07 21:24 55.22704 -3.15130 17213 ft 363 kts 334°
2026-05-07 21:24 55.25006 -3.16819 16420 ft 355 kts 334°
2026-05-07 21:24 55.27259 -3.18476 15636 ft 348 kts 334°
2026-05-07 21:25 55.29536 -3.19691 14873 ft 346 kts 346°
2026-05-07 21:25 55.31924 -3.20065 14109 ft 344 kts 358°
2026-05-07 21:25 55.34334 -3.19726 13312 ft 341 kts
2026-05-07 21:25 55.36643 -3.19360 12567 ft 335 kts
2026-05-07 21:26 55.38949 -3.19015 11827 ft 329 kts
2026-05-07 21:26 55.41211 -3.18661 11099 ft 324 kts
2026-05-07 21:26 55.43442 -3.18311 10382 ft 319 kts
2026-05-07 21:26 55.45651 -3.17962 9656 ft 316 kts
2026-05-07 21:27 55.47803 -3.17742 8948 ft 309 kts 354°
2026-05-07 21:27 55.49812 -3.18787 8267 ft 296 kts 329°
2026-05-07 21:27 55.51389 -3.21001 7618 ft 285 kts 307°
2026-05-07 21:27 55.52356 -3.23963 7023 ft 274 kts 285°
2026-05-07 21:28 55.52650 -3.27106 6974 ft 247 kts 267°
2026-05-07 21:28 55.52392 -3.29964 6960 ft 229 kts 250°
2026-05-07 21:28 55.51689 -3.32474 6968 ft 230 kts 234°
2026-05-07 21:28 55.50578 -3.34530 6961 ft 234 kts 217°
2026-05-07 21:29 55.49145 -3.35851 6970 ft 236 kts 196°
2026-05-07 21:29 55.47496 -3.35734 6968 ft 243 kts 166°
2026-05-07 21:29 55.46094 -3.34118 6968 ft 251 kts 135°
2026-05-07 21:29 55.45360 -3.31310 6965 ft 261 kts 102°
2026-05-07 21:30 55.45642 -3.28152 6970 ft 268 kts 66°
2026-05-07 21:30 55.46897 -3.25749 6969 ft 271 kts 30°
2026-05-07 21:30 55.48694 -3.24999 6966 ft 266 kts 353°
2026-05-07 21:30 55.50473 -3.25747 6977 ft 262 kts 338°
2026-05-07 21:31 55.52200 -3.26804 6982 ft 263 kts 338°
2026-05-07 21:31 55.53958 -3.27753 6984 ft 264 kts 341°
2026-05-07 21:31 55.55704 -3.28589 6985 ft 262 kts 342°
2026-05-07 21:31 55.57524 -3.28739 6963 ft 268 kts 11°
2026-05-07 21:32 55.59243 -3.27455 6967 ft 270 kts 27°
2026-05-07 21:32 55.60880 -3.25824 6970 ft 269 kts 28°
2026-05-07 21:32 55.62547 -3.24306 6972 ft 268 kts 24°
2026-05-07 21:32 55.64235 -3.22896 6973 ft 269 kts 24°
2026-05-07 21:33 55.65886 -3.21476 6970 ft 256 kts 25°
2026-05-07 21:33 55.67447 -3.20108 6914 ft 247 kts 25°
2026-05-07 21:33 55.68970 -3.18780 6807 ft 247 kts 24°
2026-05-07 21:33 55.70518 -3.17435 6662 ft 248 kts 25°
2026-05-07 21:34 55.72077 -3.16087 6527 ft 248 kts 24°
2026-05-07 21:34 55.73627 -3.14744 6370 ft 247 kts 25°
2026-05-07 21:34 55.75169 -3.13401 6202 ft 245 kts 25°
2026-05-07 21:34 55.76696 -3.12076 6038 ft 244 kts 24°
2026-05-07 21:35 55.78224 -3.10748 5875 ft 245 kts 25°
2026-05-07 21:35 55.79735 -3.09426 5716 ft 245 kts 25°
2026-05-07 21:35 55.81291 -3.08076 5552 ft 245 kts 25°
2026-05-07 21:35 55.82801 -3.06756 5396 ft 245 kts 25°
2026-05-07 21:36 55.84327 -3.05424 5226 ft 243 kts 25°
2026-05-07 21:36 55.85921 -3.04496 5065 ft 240 kts
2026-05-07 21:36 55.87572 -3.04067 4909 ft 240 kts
2026-05-07 21:36 55.89210 -3.03487 4752 ft 239 kts
2026-05-07 21:37 55.90850 -3.02937 4590 ft 239 kts
2026-05-07 21:37 55.92484 -3.02426 4432 ft 238 kts
2026-05-07 21:37 55.94095 -3.01919 4280 ft 237 kts
2026-05-07 21:37 55.95722 -3.01972 4106 ft 232 kts 346°
2026-05-07 21:38 55.97320 -3.02416 3958 ft 232 kts 349°
2026-05-07 21:38 55.98930 -3.02724 3802 ft 232 kts 350°
2026-05-07 21:38 56.00534 -3.03081 3651 ft 232 kts 348°
2026-05-07 21:38 56.02095 -3.03689 3485 ft 226 kts 329°
2026-05-07 21:39 56.03140 -3.05535 3330 ft 208 kts 297°
2026-05-07 21:39 56.03715 -3.07838 3197 ft 195 kts 278°
2026-05-07 21:39 56.03785 -3.10187 3082 ft 189 kts 260°
2026-05-07 21:39 56.03414 -3.12422 2967 ft 188 kts 242°
2026-05-07 21:40 56.02730 -3.14365 2959 ft 184 kts 235°
2026-05-07 21:40 56.02042 -3.16379 2686 ft 191 kts 238°
2026-05-07 21:40 56.01606 -3.17730 2514 ft 187 kts 238°
2026-05-07 21:40 56.00930 -3.19690 2257 ft 183 kts 236°
2026-05-07 21:41 56.00084 -3.22246 1929 ft 173 kts 236°
2026-05-07 21:41 55.99452 -3.24066 1696 ft 175 kts 234°
2026-05-07 21:41 55.98813 -3.25972 1444 ft 182 kts 236°
2026-05-07 21:41 55.98382 -3.27274 1275 ft 185 kts 235°
2026-05-07 21:42 55.97712 -3.29202 1062 ft 163 kts 236°
2026-05-07 21:42 55.97244 -3.30656 812 ft 116 kts 236°
2026-05-07 21:42 55.96846 -3.31787 645 ft 105 kts 235°
2026-05-07 21:42 55.96464 -3.32935 540 ft 108 kts 236°
2026-05-07 21:43 55.96075 -3.34094 368 ft 107 kts 237°
2026-05-07 21:43 55.95698 -3.35181 238 ft 98 kts 237°
2026-05-07 21:43 55.95350 -3.36233 102 ft 91 kts 230°
2026-05-07 21:43 55.95086 -3.36993 103 ft 54 kts 238°
2026-05-07 21:44 55.94926 -3.37477 101 ft 38 kts 237°
2026-05-07 21:44 55.94788 -3.37869 104 ft 32 kts 242°
2026-05-07 21:44 55.94713 -3.38065 103 ft 5 kts 184°
2026-05-07 21:44 55.94652 -3.38014 102 ft 16 kts 151°
2026-05-07 21:45 55.94596 -3.37878 101 ft 17 kts 73°
2026-05-07 21:45 55.94669 -3.37659 101 ft 24 kts 58°
2026-05-07 21:45 55.94767 -3.37365 101 ft 32 kts 58°
2026-05-07 21:45 55.94889 -3.37006 101 ft 31 kts 59°
2026-05-07 21:46 55.94926 -3.36853 101 ft 10 kts 113°
2026-05-07 21:46 55.94864 -3.36786 101 ft 11 kts 173°
2026-05-07 21:46 55.94781 -3.36772 101 ft 11 kts 153°
2026-05-07 21:46 55.94742 -3.36764 101 ft 5 kts 259°
2026-05-07 21:47 55.94743 -3.36847 101 ft 6 kts 270°
2026-05-07 21:47 55.94743 -3.36861 101 ft 0 kts 270°